DW5673 Weather Reports


time (UTC)temp
C
wind
direction
speed
KPH
gust
KPH
rain 1hr
cm
rain 24hr
cm
rain mn
cm
humidity
%
barometer
mb
20260504014532 16 224 3.2 8.0 0.00 0.10 0.10 64 1005.5
20260504013031 16 221 3.2 9.7 0.00 0.10 0.10 62 1005.4
20260504011530 17 234 3.2 12.9 0.00 0.10 0.10 61 1005.4
20260504010030 17 257 3.2 11.3 0.00 0.10 0.10 60 1005.3
20260504004540 17 253 4.8 12.9 0.00 0.10 0.10 59 1005.3
20260504003028 18 255 4.8 9.7 0.00 0.10 0.10 57 1005.3
20260504001527 18 239 8.0 17.7 0.00 0.10 0.10 56 1005.5
20260504000027 18 236 4.8 14.5 0.00 0.10 0.10 56 1005.4
20260503234524 19 257 4.8 14.5 0.00 0.10 0.10 55 1005.4
20260503233029 19 238 8.0 14.5 0.00 0.10 0.10 53 1005.4
20260503231513 19 251 4.8 22.5 0.00 0.10 0.10 53 1005.4
20260503230115 19 235 9.7 24.1 0.00 0.10 0.10 51 1005.5
20260503224515 19 236 3.2 14.5 0.00 0.10 0.10 53 1005.8
20260503223013 19 257 8.0 16.1 0.00 0.10 0.10 52 1005.9
20260503221509 18 249 6.4 16.1 0.00 0.10 0.10 53 1006.1
20260503220008 18 237 4.8 14.5 0.00 0.10 0.10 53 1006.2
20260503214507 18 243 4.8 16.1 0.00 0.10 0.10 54 1006.3
20260503213007 18 220 9.7 27.4 0.00 0.10 0.10 54 1006.6
20260503211502 18 252 6.4 19.3 0.00 0.10 0.10 53 1006.9
20260503210100 17 245 9.7 20.9 0.00 0.10 0.10 53 1007.2
20260503204559 17 237 12.9 22.5 0.00 0.10 0.10 50 1007.6
20260503203056 18 258 14.5 24.1 0.00 0.10 0.10 50 1007.8
20260503201555 18 241 12.9 27.4 0.00 0.10 0.10 50 1008.0
20260503200052 18 248 17.7 32.2 0.00 0.10 0.10 53 1008.0
20260503194549 17 236 11.3 35.4 0.00 0.10 0.10 55 1008.3
20260503193049 16 235 16.1 29.0 0.00 0.10 0.10 58 1008.4
20260503191541 16 209 8.0 20.9 0.00 0.10 0.10 65 1008.9
20260503190042 15 199 9.7 38.6 0.00 0.10 0.10 67 1009.0
20260503184531 14 203 9.7 46.7 0.00 0.10 0.10 71 1009.4
20260503183028 13 253 8.0 27.4 0.03 0.10 0.10 78 1009.6
20260503181525 11 222 12.9 35.4 0.03 0.10 0.10 82 1010.0
20260503180020 10 237 8.0 24.1 0.03 0.10 0.10 85 1010.5
20260503174516 9 187 12.9 19.3 0.05 0.10 0.10 89 1011.0
20260503173019 9 235 6.4 22.5 0.03 0.08 0.08 92 1011.7
20260503171510 9 222 6.4 17.7 0.03 0.08 0.08 92 1012.3
20260503081548 7 263 1.6 8.0 0.00 0.00 0.00 69 1015.0
20260503071543 6 268 1.6 4.8 0.00 0.00 0.00 69 1015.1
20260503054532 6 268 0.0 0.0 0.00 0.00 0.00 68 1015.8
20260503053023 7 268 0.0 0.0 0.00 0.00 0.00 65 1016.0
20260503051520 7 268 1.6 6.4 0.00 0.00 0.00 63 1016.0
20260503050020 7 268 1.6 6.4 0.00 0.00 0.00 63 1016.2
20260503044517 7 296 3.2 6.4 0.00 0.00 0.00 67 1016.2
20260503043015 7 303 1.6 4.8 0.00 0.00 0.00 65 1016.2
20260503041514 7 304 1.6 4.8 0.00 0.00 0.00 66 1016.2
20260503040013 7 304 1.6 4.8 0.00 0.00 0.00 66 1016.3
20260503034513 7 304 1.6 4.8 0.00 0.00 0.00 66 1016.4
20260503033021 7 304 1.6 4.8 0.00 0.00 0.00 65 1016.4
20260503031512 8 304 1.6 4.8 0.00 0.00 0.00 65 1016.5
20260503030012 8 304 1.6 4.8 0.00 0.00 0.00 64 1016.5
20260503024509 8 304 1.6 4.8 0.00 0.00 0.00 63 1016.5
20260503023009 8 304 1.6 4.8 0.00 0.00 0.00 63 1016.5
20260503021513 8 304 1.6 3.2 0.00 0.00 0.00 63 1016.5
20260503020008 8 304 0.0 0.0 0.00 0.00 0.00 60 1016.5